| time (UTC) | temp F | wind direction | speed MPH | gust MPH | rain 1hr in | rain 24hr in | rain mn in | humidity % | barometer mb |
| 20260506102428 | 64 | 98 | 4.0 | 4.0 | 0.00 | 0.00 | 0.00 | 70 | 1008.1 |
| 20260506101428 | 64 | 101 | 3.0 | 3.0 | 0.00 | 0.00 | 0.00 | 71 | 1008.4 |
| 20260506100427 | 64 | 96 | 2.0 | 3.0 | 0.00 | 0.00 | 0.00 | 70 | 1008.5 |
| 20260506095428 | 64 | 71 | 1.0 | 2.0 | 0.00 | 0.00 | 0.00 | 69 | 1008.5 |
| 20260506094504 | 64 | 88 | 8.0 | 11.0 | 0.00 | 0.00 | 0.00 | 68 | 1008.6 |
| 20260506093501 | 64 | 74 | 4.0 | 7.0 | 0.00 | 0.00 | 0.00 | 67 | 1008.8 |
| 20260506092442 | 63 | 94 | 4.0 | 4.0 | 0.00 | 0.00 | 0.00 | 69 | 1008.7 |
| 20260506091515 | 62 | 84 | 2.0 | 3.0 | 0.00 | 0.00 | 0.00 | 69 | 1009.1 |
| 20260506090434 | 62 | 88 | 8.0 | 10.0 | 0.00 | 0.00 | 0.00 | 70 | 1008.9 |
| 20260506085431 | 62 | 80 | 3.0 | 6.0 | 0.00 | 0.00 | 0.00 | 70 | 1008.9 |
| 20260506084428 | 62 | 81 | 2.0 | 3.0 | 0.00 | 0.00 | 0.00 | 68 | 1009.3 |
| 20260506083427 | 62 | 109 | 3.0 | 3.0 | 0.00 | 0.00 | 0.00 | 69 | 1009.1 |
| 20260506082428 | 61 | 46 | 3.0 | 4.0 | 0.00 | 0.00 | 0.00 | 69 | 1009.2 |
| 20260506081427 | 61 | 323 | 2.0 | 3.0 | 0.00 | 0.00 | 0.00 | 67 | 1009.1 |
| 20260506080426 | 61 | 332 | 4.0 | 6.0 | 0.00 | 0.00 | 0.00 | 70 | 1008.9 |
| 20260506073439 | 60 | 108 | 3.0 | 3.0 | 0.00 | 0.00 | 0.00 | 69 | 1009.6 |
| 20260506072435 | 61 | 82 | 3.0 | 4.0 | 0.00 | 0.00 | 0.00 | 68 | 1009.6 |
| 20260506071431 | 60 | 45 | 2.0 | 2.0 | 0.00 | 0.00 | 0.00 | 69 | 1009.5 |
| 20260506070429 | 61 | 60 | 3.0 | 6.0 | 0.00 | 0.00 | 0.00 | 70 | 1009.5 |
| 20260506062427 | 60 | 141 | 2.0 | 3.0 | 0.00 | 0.00 | 0.00 | 72 | 1009.9 |
| 20260506061446 | 60 | 0.0 | 0.0 | 0.00 | 0.00 | 0.00 | 70 | 1009.8 | |
| 20260506060442 | 61 | 0.0 | 0.0 | 0.00 | 0.00 | 0.00 | 68 | 1009.9 | |
| 20260506050428 | 56 | 159 | 1.0 | 2.0 | 0.00 | 0.00 | 0.00 | 74 | 1010.3 |
| 20260506044427 | 61 | 167 | 2.0 | 2.0 | 0.00 | 0.00 | 0.00 | 68 | 1010.1 |
| 20260506043427 | 60 | 177 | 1.0 | 2.0 | 0.00 | 0.00 | 0.00 | 71 | 1010.0 |
| 20260506042447 | 59 | 177 | 2.0 | 2.0 | 0.00 | 0.00 | 0.00 | 74 | 1010.2 |
| 20260506041442 | 57 | 183 | 2.0 | 2.0 | 0.00 | 0.00 | 0.00 | 76 | 1010.2 |
| 20260506040439 | 55 | 185 | 2.0 | 3.0 | 0.00 | 0.00 | 0.00 | 77 | 1010.6 |
| 20260506035436 | 55 | 228 | 2.0 | 3.0 | 0.00 | 0.00 | 0.00 | 78 | 1010.2 |
| 20260506034433 | 55 | 293 | 2.0 | 2.0 | 0.00 | 0.00 | 0.00 | 78 | 1010.2 |
| 20260506033450 | 55 | 293 | 3.0 | 4.0 | 0.00 | 0.00 | 0.00 | 77 | 1010.6 |
| 20260506032448 | 54 | 199 | 1.0 | 2.0 | 0.00 | 0.00 | 0.00 | 76 | 1010.3 |
| 20260506031447 | 55 | 198 | 1.0 | 2.0 | 0.00 | 0.00 | 0.00 | 74 | 1010.4 |
| 20260506030427 | 56 | 0.0 | 0.0 | 0.00 | 0.00 | 0.00 | 73 | 1010.1 | |
| 20260506025428 | 56 | 224 | 1.0 | 1.0 | 0.00 | 0.00 | 0.00 | 73 | 1010.0 |
| 20260506024428 | 57 | 259 | 2.0 | 3.0 | 0.00 | 0.00 | 0.00 | 73 | 1010.2 |
| 20260506023445 | 57 | 215 | 5.0 | 8.0 | 0.00 | 0.00 | 0.00 | 73 | 1010.1 |
| 20260506022441 | 56 | 210 | 3.0 | 3.0 | 0.00 | 0.00 | 0.00 | 75 | 1010.3 |
| 20260506021458 | 56 | 225 | 3.0 | 4.0 | 0.00 | 0.00 | 0.00 | 76 | 1010.2 |
| 20260506020436 | 55 | 187 | 3.0 | 4.0 | 0.00 | 0.00 | 0.00 | 76 | 1010.2 |
| 20260506015432 | 56 | 187 | 2.0 | 2.0 | 0.00 | 0.00 | 0.00 | 76 | 1010.1 |
| 20260506014430 | 56 | 184 | 2.0 | 3.0 | 0.00 | 0.00 | 0.00 | 76 | 1010.4 |
| 20260506013508 | 56 | 218 | 2.0 | 2.0 | 0.00 | 0.00 | 0.00 | 76 | 1010.5 |
| 20260506012427 | 57 | 229 | 1.0 | 1.0 | 0.00 | 0.00 | 0.00 | 73 | 1010.9 |
| 20260506011427 | 57 | 226 | 3.0 | 6.0 | 0.00 | 0.00 | 0.00 | 74 | 1010.8 |
| 20260506010446 | 58 | 238 | 1.0 | 1.0 | 0.00 | 0.00 | 0.00 | 73 | 1011.0 |
| 20260506005507 | 58 | 281 | 4.0 | 4.0 | 0.00 | 0.00 | 0.00 | 72 | 1010.9 |
| 20260506004445 | 58 | 289 | 5.0 | 10.0 | 0.00 | 0.00 | 0.00 | 72 | 1010.8 |
| 20260506003439 | 58 | 293 | 6.0 | 9.0 | 0.00 | 0.00 | 0.00 | 73 | 1010.8 |
| 20260506002456 | 58 | 278 | 4.0 | 7.0 | 0.00 | 0.00 | 0.00 | 72 | 1010.8 |
| 20260506001435 | 58 | 275 | 6.0 | 9.0 | 0.00 | 0.00 | 0.00 | 73 | 1010.8 |
| 20260506000431 | 58 | 275 | 6.0 | 9.0 | 0.00 | 0.00 | 0.00 | 74 | 1010.8 |
| 20260505235427 | 58 | 298 | 6.0 | 11.0 | 0.00 | 0.00 | 0.00 | 73 | 1010.9 |
| 20260505234428 | 58 | 297 | 11.0 | 16.0 | 0.00 | 0.00 | 0.00 | 73 | 1010.7 |
| 20260505233448 | 59 | 295 | 11.0 | 17.0 | 0.00 | 0.00 | 0.00 | 74 | 1010.7 |
| 20260505232427 | 59 | 287 | 8.0 | 10.0 | 0.00 | 0.00 | 0.00 | 73 | 1010.5 |
| 20260505231427 | 59 | 278 | 9.0 | 16.0 | 0.00 | 0.00 | 0.00 | 72 | 1010.4 |
| 20260505230443 | 58 | 283 | 8.0 | 11.0 | 0.00 | 0.00 | 0.00 | 73 | 1010.2 |
| 20260505225442 | 58 | 285 | 6.0 | 9.0 | 0.00 | 0.00 | 0.00 | 74 | 1010.0 |
| 20260505224437 | 57 | 297 | 8.0 | 13.0 | 0.00 | 0.00 | 0.00 | 76 | 1009.8 |
| 20260505223435 | 57 | 270 | 6.0 | 9.0 | 0.00 | 0.00 | 0.00 | 74 | 1009.7 |
| 20260505222432 | 58 | 300 | 5.0 | 6.0 | 0.00 | 0.00 | 0.00 | 72 | 1009.6 |
| 20260505221512 | 59 | 287 | 3.0 | 3.0 | 0.00 | 0.00 | 0.00 | 69 | 1009.5 |
| 20260505220427 | 59 | 263 | 1.0 | 2.0 | 0.00 | 0.00 | 0.00 | 70 | 1009.3 |
| 20260505215426 | 59 | 266 | 1.0 | 2.0 | 0.00 | 0.00 | 0.00 | 70 | 1009.2 |
| 20260505214428 | 59 | 245 | 2.0 | 3.0 | 0.00 | 0.00 | 0.00 | 71 | 1009.1 |
| 20260505213427 | 59 | 267 | 3.0 | 4.0 | 0.00 | 0.00 | 0.00 | 71 | 1009.0 |
| 20260505212445 | 59 | 271 | 2.0 | 3.0 | 0.00 | 0.00 | 0.00 | 72 | 1009.0 |
| 20260505211442 | 59 | 289 | 4.0 | 6.0 | 0.00 | 0.00 | 0.00 | 72 | 1008.9 |
| 20260505210442 | 59 | 303 | 4.0 | 7.0 | 0.00 | 0.00 | 0.00 | 72 | 1009.0 |
| 20260505205436 | 59 | 288 | 4.0 | 6.0 | 0.00 | 0.00 | 0.00 | 71 | 1008.7 |
| 20260505204434 | 60 | 283 | 4.0 | 4.0 | 0.00 | 0.00 | 0.00 | 70 | 1008.8 |
| 20260505203433 | 60 | 284 | 5.0 | 6.0 | 0.00 | 0.00 | 0.00 | 69 | 1008.6 |
| 20260505202427 | 60 | 297 | 4.0 | 6.0 | 0.00 | 0.00 | 0.00 | 69 | 1008.3 |
| 20260505201428 | 60 | 285 | 4.0 | 7.0 | 0.00 | 0.00 | 0.00 | 69 | 1008.3 |
| 20260505200449 | 61 | 286 | 4.0 | 6.0 | 0.00 | 0.00 | 0.00 | 69 | 1008.2 |
| 20260505195430 | 61 | 286 | 5.0 | 6.0 | 0.00 | 0.00 | 0.00 | 68 | 1008.1 |
| 20260505194427 | 61 | 283 | 4.0 | 6.0 | 0.00 | 0.00 | 0.00 | 68 | 1008.1 |
| 20260505193443 | 61 | 286 | 4.0 | 7.0 | 0.00 | 0.00 | 0.00 | 68 | 1008.2 |
| 20260505192440 | 61 | 294 | 8.0 | 13.0 | 0.00 | 0.00 | 0.00 | 68 | 1008.0 |
| 20260505191437 | 61 | 296 | 2.0 | 2.0 | 0.00 | 0.00 | 0.00 | 68 | 1008.0 |
| 20260505190434 | 62 | 288 | 3.0 | 4.0 | 0.00 | 0.00 | 0.00 | 67 | 1007.8 |
| 20260505185431 | 62 | 278 | 6.0 | 9.0 | 0.00 | 0.00 | 0.00 | 66 | 1007.4 |
| 20260505184428 | 62 | 291 | 7.0 | 9.0 | 0.00 | 0.00 | 0.00 | 66 | 1007.1 |
| 20260505183454 | 62 | 283 | 9.0 | 17.0 | 0.00 | 0.00 | 0.00 | 67 | 1006.9 |
| 20260505182450 | 61 | 285 | 8.0 | 14.0 | 0.00 | 0.00 | 0.00 | 67 | 1006.8 |
| 20260505181445 | 61 | 249 | 12.0 | 18.0 | 0.00 | 0.00 | 0.00 | 68 | 1006.5 |
| 20260505180453 | 62 | 302 | 10.0 | 17.0 | 0.00 | 0.00 | 0.00 | 68 | 1006.8 |
| 20260505175444 | 63 | 292 | 13.0 | 18.0 | 0.00 | 0.00 | 0.00 | 65 | 1006.5 |
| 20260505174508 | 67 | 285 | 17.0 | 30.0 | 0.00 | 0.00 | 0.00 | 58 | 1006.1 |
| 20260505173505 | 71 | 0.0 | 0.0 | 0.00 | 0.00 | 0.00 | 46 | 1005.3 | |
| 20260505172451 | 71 | 276 | 2.0 | 3.0 | 0.00 | 0.00 | 0.00 | 46 | 1005.3 |
| 20260505171447 | 71 | 244 | 1.0 | 2.0 | 0.00 | 0.00 | 0.00 | 46 | 1005.2 |
| 20260505170447 | 72 | 0.0 | 0.0 | 0.00 | 0.00 | 0.00 | 46 | 1005.2 | |
| 20260505165442 | 72 | 0.0 | 0.0 | 0.00 | 0.00 | 0.00 | 46 | 1005.3 | |
| 20260505164426 | 73 | 144 | 2.0 | 2.0 | 0.00 | 0.00 | 0.00 | 46 | 1005.3 |
| 20260505163428 | 74 | 132 | 0.0 | 1.0 | 0.00 | 0.00 | 0.00 | 46 | 1005.4 |
| 20260505162426 | 74 | 0.0 | 0.0 | 0.00 | 0.00 | 0.00 | 43 | 1005.3 | |
| 20260505161442 | 74 | 0.0 | 0.0 | 0.00 | 0.00 | 0.00 | 41 | 1005.5 | |
| 20260505160444 | 74 | 66 | 1.0 | 2.0 | 0.00 | 0.00 | 0.00 | 43 | 1005.8 |
| 20260505152453 | 75 | 93 | 6.0 | 8.0 | 0.00 | 0.00 | 0.00 | 45 | 1005.9 |
| 20260505151450 | 75 | 95 | 5.0 | 8.0 | 0.00 | 0.00 | 0.00 | 42 | 1005.9 |
| 20260505150448 | 75 | 351 | 3.0 | 6.0 | 0.00 | 0.00 | 0.00 | 42 | 1005.9 |
| 20260505140440 | 76 | 88 | 2.0 | 4.0 | 0.00 | 0.00 | 0.00 | 40 | 1006.6 |
| 20260505123524 | 75 | 329 | 2.0 | 3.0 | 0.00 | 0.00 | 0.00 | 43 | 1007.8 |
| 20260505122500 | 76 | 109 | 8.0 | 14.0 | 0.00 | 0.00 | 0.00 | 39 | 1007.8 |
| 20260505121437 | 76 | 343 | 12.0 | 17.0 | 0.00 | 0.00 | 0.00 | 40 | 1007.7 |
| 20260505120436 | 76 | 89 | 5.0 | 8.0 | 0.00 | 0.00 | 0.00 | 40 | 1008.0 |
| 20260505115452 | 74 | 296 | 6.0 | 9.0 | 0.00 | 0.00 | 0.00 | 42 | 1008.0 |
| 20260505114430 | 75 | 322 | 8.0 | 14.0 | 0.00 | 0.00 | 0.00 | 41 | 1008.2 |
| 20260505113428 | 73 | 106 | 1.0 | 3.0 | 0.00 | 0.00 | 0.00 | 46 | 1008.2 |
| 20260505112427 | 74 | 48 | 5.0 | 9.0 | 0.00 | 0.00 | 0.00 | 46 | 1008.3 |
| 20260505111447 | 74 | 96 | 10.0 | 16.0 | 0.00 | 0.00 | 0.00 | 44 | 1008.2 |
| 20260505110427 | 73 | 6 | 4.0 | 7.0 | 0.00 | 0.00 | 0.00 | 43 | 1008.6 |